Year,Month,Day,Hour,Minute,Value (Times are PST for temperature in C)
2005,02,28,00,00,6.80
2005,02,28,00,01,6.70
2005,02,28,00,02,6.70
2005,02,28,00,03,6.70
2005,02,28,00,04,6.70
2005,02,28,00,05,6.70
2005,02,28,00,06,6.70
2005,02,28,00,07,6.70
2005,02,28,00,08,6.60
2005,02,28,00,09,6.60
2005,02,28,00,10,6.60
2005,02,28,00,11,6.60
2005,02,28,00,12,6.60
2005,02,28,00,13,6.60
2005,02,28,00,14,6.60
2005,02,28,00,15,6.60
2005,02,28,00,16,6.60
2005,02,28,00,17,6.60
2005,02,28,00,18,6.60
2005,02,28,00,19,6.60
2005,02,28,00,20,6.60
2005,02,28,00,21,6.60
2005,02,28,00,22,6.60
2005,02,28,00,23,6.60
2005,02,28,00,24,6.70
2005,02,28,00,25,6.70
2005,02,28,00,26,6.70
2005,02,28,00,27,6.70
2005,02,28,00,28,6.80
2005,02,28,00,29,6.80
2005,02,28,00,30,6.80
2005,02,28,00,31,6.80
2005,02,28,00,32,6.80
2005,02,28,00,33,6.80
2005,02,28,00,34,6.80
2005,02,28,00,35,6.80
2005,02,28,00,36,6.80
2005,02,28,00,37,6.80
2005,02,28,00,38,6.80
2005,02,28,00,39,6.80
2005,02,28,00,40,6.80
2005,02,28,00,41,6.80
2005,02,28,00,42,6.80
2005,02,28,00,43,6.70
2005,02,28,00,44,6.70
2005,02,28,00,45,6.70
2005,02,28,00,46,6.60
2005,02,28,00,47,6.60
2005,02,28,00,48,6.60
2005,02,28,00,49,6.60
2005,02,28,00,50,6.50
2005,02,28,00,51,6.40
2005,02,28,00,52,6.40
2005,02,28,00,53,6.40
2005,02,28,00,54,6.40
2005,02,28,00,55,6.40
2005,02,28,00,56,6.40
2005,02,28,00,57,6.40
2005,02,28,00,58,6.40
2005,02,28,00,59,6.40
2005,02,28,01,00,6.50
2005,02,28,01,01,6.50
2005,02,28,01,02,6.60
2005,02,28,01,03,6.60
2005,02,28,01,04,6.70
2005,02,28,01,05,6.70
2005,02,28,01,06,6.70
2005,02,28,01,07,6.70
2005,02,28,01,08,6.70
2005,02,28,01,09,6.70
2005,02,28,01,10,6.70
2005,02,28,01,11,6.70
2005,02,28,01,12,6.70
2005,02,28,01,13,6.70
2005,02,28,01,14,6.60
2005,02,28,01,15,6.60
2005,02,28,01,16,6.60
2005,02,28,01,17,6.60
2005,02,28,01,18,6.60
2005,02,28,01,19,6.60
2005,02,28,01,20,6.60
2005,02,28,01,21,6.60
2005,02,28,01,22,6.50
2005,02,28,01,23,6.40
2005,02,28,01,24,6.40
2005,02,28,01,25,6.40
2005,02,28,01,26,6.40
2005,02,28,01,27,6.40
2005,02,28,01,28,6.40
2005,02,28,01,29,6.40
2005,02,28,01,30,6.40
2005,02,28,01,31,6.40
2005,02,28,01,32,6.40
2005,02,28,01,33,6.50
2005,02,28,01,34,6.60
2005,02,28,01,35,6.60
2005,02,28,01,36,6.60
2005,02,28,01,37,6.60
2005,02,28,01,38,6.60
2005,02,28,01,39,6.60
2005,02,28,01,40,6.60
2005,02,28,01,41,6.60
2005,02,28,01,42,6.60
2005,02,28,01,43,6.60
2005,02,28,01,44,6.60
2005,02,28,01,45,6.60
2005,02,28,01,46,6.60
2005,02,28,01,47,6.60
2005,02,28,01,48,6.60
2005,02,28,01,49,6.70
2005,02,28,01,50,6.70
2005,02,28,01,51,6.70
2005,02,28,01,52,6.70
2005,02,28,01,53,6.70
2005,02,28,01,54,6.70
2005,02,28,01,55,6.70
2005,02,28,01,56,6.70
2005,02,28,01,57,6.60
2005,02,28,01,58,6.60
2005,02,28,01,59,6.60
2005,02,28,02,00,6.60
2005,02,28,02,01,6.60
2005,02,28,02,02,6.60
2005,02,28,02,03,6.60
2005,02,28,02,04,6.60
2005,02,28,02,05,6.60
2005,02,28,02,06,6.60
2005,02,28,02,07,6.60
2005,02,28,02,08,6.60
2005,02,28,02,09,6.60
2005,02,28,02,10,6.60
2005,02,28,02,11,6.70
2005,02,28,02,12,6.70
2005,02,28,02,13,6.80
2005,02,28,02,14,6.80
2005,02,28,02,15,6.90
2005,02,28,02,16,7.00
2005,02,28,02,17,7.00
2005,02,28,02,18,7.00
2005,02,28,02,19,7.10
2005,02,28,02,20,7.10
2005,02,28,02,21,7.20
2005,02,28,02,22,7.20
2005,02,28,02,23,7.30
2005,02,28,02,24,7.20
2005,02,28,02,25,7.10
2005,02,28,02,26,7.10
2005,02,28,02,27,7.00
2005,02,28,02,28,7.00
2005,02,28,02,29,6.90
2005,02,28,02,30,6.80
2005,02,28,02,31,6.80
2005,02,28,02,32,6.80
2005,02,28,02,33,6.80
2005,02,28,02,34,6.80
2005,02,28,02,35,6.80
2005,02,28,02,36,6.90
2005,02,28,02,37,6.90
2005,02,28,02,38,6.90
2005,02,28,02,39,6.90
2005,02,28,02,40,7.00
2005,02,28,02,41,7.00
2005,02,28,02,42,7.10
2005,02,28,02,43,7.20
2005,02,28,02,44,7.20
2005,02,28,02,45,7.20
2005,02,28,02,46,7.20
2005,02,28,02,47,7.20
2005,02,28,02,48,7.10
2005,02,28,02,49,7.10
2005,02,28,02,50,7.10
2005,02,28,02,51,7.00
2005,02,28,02,52,7.00
2005,02,28,02,53,7.00
2005,02,28,02,54,7.00
2005,02,28,02,55,7.10
2005,02,28,02,56,7.10
2005,02,28,02,57,7.10
2005,02,28,02,58,7.10
2005,02,28,02,59,7.00
2005,02,28,03,00,7.00
2005,02,28,03,01,7.00
2005,02,28,03,02,7.00
2005,02,28,03,03,7.10
2005,02,28,03,04,7.20
2005,02,28,03,05,7.20
2005,02,28,03,06,7.30
2005,02,28,03,07,7.30
2005,02,28,03,08,7.40
2005,02,28,03,09,7.40
2005,02,28,03,10,7.50
2005,02,28,03,11,7.60
2005,02,28,03,12,7.60
2005,02,28,03,13,7.70
2005,02,28,03,14,7.70
2005,02,28,03,15,7.80
2005,02,28,03,16,7.80
2005,02,28,03,17,7.90
2005,02,28,03,18,7.90
2005,02,28,03,19,7.90
2005,02,28,03,20,8.00
2005,02,28,03,21,8.00
2005,02,28,03,22,8.00
2005,02,28,03,23,8.10
2005,02,28,03,24,8.20
2005,02,28,03,25,8.20
2005,02,28,03,26,8.20
2005,02,28,03,27,8.20
2005,02,28,03,28,8.20
2005,02,28,03,29,8.20
2005,02,28,03,30,8.20
2005,02,28,03,31,8.20
2005,02,28,03,32,8.20
2005,02,28,03,33,8.20
2005,02,28,03,34,8.20
2005,02,28,03,35,8.10
2005,02,28,03,36,8.10
2005,02,28,03,37,8.10
2005,02,28,03,38,7.90
2005,02,28,03,39,7.90
2005,02,28,03,40,7.90
2005,02,28,03,41,7.80
2005,02,28,03,42,7.80
2005,02,28,03,43,7.80
2005,02,28,03,44,7.80
2005,02,28,03,45,7.80
2005,02,28,03,46,7.80
2005,02,28,03,47,7.80
2005,02,28,03,48,7.80
2005,02,28,03,49,7.80
2005,02,28,03,50,7.80
2005,02,28,03,51,7.80
2005,02,28,03,52,7.80
2005,02,28,03,53,7.90
2005,02,28,03,54,7.90
2005,02,28,03,55,7.90
2005,02,28,03,56,8.00
2005,02,28,03,57,8.00
2005,02,28,03,58,8.10
2005,02,28,03,59,8.10
2005,02,28,04,00,8.20
2005,02,28,04,01,8.20
2005,02,28,04,02,8.20
2005,02,28,04,03,8.20
2005,02,28,04,04,8.20
2005,02,28,04,05,8.20
2005,02,28,04,06,8.10
2005,02,28,04,07,8.10
2005,02,28,04,08,8.00
2005,02,28,04,09,7.90
2005,02,28,04,10,7.80
2005,02,28,04,11,7.70
2005,02,28,04,12,7.60
2005,02,28,04,13,7.50
2005,02,28,04,14,7.40
2005,02,28,04,15,7.40
2005,02,28,04,16,7.30
2005,02,28,04,17,7.30
2005,02,28,04,18,7.30
2005,02,28,04,19,7.30
2005,02,28,04,20,7.40
2005,02,28,04,21,7.40
2005,02,28,04,22,7.50
2005,02,28,04,23,7.50
2005,02,28,04,24,7.60
2005,02,28,04,25,7.70
2005,02,28,04,26,7.70
2005,02,28,04,27,7.70
2005,02,28,04,28,7.70
2005,02,28,04,29,7.80
2005,02,28,04,30,7.80
2005,02,28,04,31,7.70
2005,02,28,04,32,7.60
2005,02,28,04,33,7.60
2005,02,28,04,34,7.50
2005,02,28,04,35,7.50
2005,02,28,04,36,7.40
2005,02,28,04,37,7.40
2005,02,28,04,38,7.50
2005,02,28,04,39,7.50
2005,02,28,04,40,7.70
2005,02,28,04,41,7.70
2005,02,28,04,42,7.70
2005,02,28,04,43,7.70
2005,02,28,04,44,7.70
2005,02,28,04,45,7.60
2005,02,28,04,46,7.60
2005,02,28,04,47,7.50
2005,02,28,04,48,7.40
2005,02,28,04,49,7.30
2005,02,28,04,50,7.30
2005,02,28,04,51,7.20
2005,02,28,04,52,7.20
2005,02,28,04,53,7.20
2005,02,28,04,54,7.30
2005,02,28,04,55,7.30
2005,02,28,04,56,7.30
2005,02,28,04,57,7.30
2005,02,28,04,58,7.50
2005,02,28,04,59,7.50
2005,02,28,05,00,7.60
2005,02,28,05,01,7.60
2005,02,28,05,02,7.70
2005,02,28,05,03,7.60
2005,02,28,05,04,7.60
2005,02,28,05,05,7.50
2005,02,28,05,06,7.40
2005,02,28,05,07,7.30
2005,02,28,05,08,7.30
2005,02,28,05,09,7.20
2005,02,28,05,10,7.20
2005,02,28,05,11,7.10
2005,02,28,05,12,7.10
2005,02,28,05,13,7.10
2005,02,28,05,14,7.00
2005,02,28,05,15,7.00
2005,02,28,05,16,7.00
2005,02,28,05,17,6.90
2005,02,28,05,18,6.80
2005,02,28,05,19,6.80
2005,02,28,05,20,6.90
2005,02,28,05,21,6.90
2005,02,28,05,22,6.90
2005,02,28,05,23,7.00
2005,02,28,05,24,7.10
2005,02,28,05,25,7.10
2005,02,28,05,26,7.10
2005,02,28,05,27,7.10
2005,02,28,05,28,7.10
2005,02,28,05,29,7.10
2005,02,28,05,30,7.10
2005,02,28,05,31,7.10
2005,02,28,05,32,7.10
2005,02,28,05,33,7.10
2005,02,28,05,34,7.10
2005,02,28,05,35,7.10
2005,02,28,05,36,7.20
2005,02,28,05,37,7.30
2005,02,28,05,38,7.40
2005,02,28,05,39,7.50
2005,02,28,05,40,7.50
2005,02,28,05,41,7.60
2005,02,28,05,42,7.60
2005,02,28,05,43,7.60
2005,02,28,05,44,7.50
2005,02,28,05,45,7.40
2005,02,28,05,46,7.30
2005,02,28,05,47,7.30
2005,02,28,05,48,7.30
2005,02,28,05,49,7.40
2005,02,28,05,50,7.50
2005,02,28,05,51,7.60
2005,02,28,05,52,7.70
2005,02,28,05,53,7.70
2005,02,28,05,54,7.90
2005,02,28,05,55,7.90
2005,02,28,05,56,8.00
2005,02,28,05,57,8.00
2005,02,28,05,58,8.00
2005,02,28,05,59,7.90
2005,02,28,06,00,7.90
2005,02,28,06,01,7.80
2005,02,28,06,02,7.70
2005,02,28,06,03,7.50
2005,02,28,06,04,7.30
2005,02,28,06,05,7.30
2005,02,28,06,06,7.30
2005,02,28,06,07,7.30
2005,02,28,06,08,7.30
2005,02,28,06,09,7.20
2005,02,28,06,10,7.10
2005,02,28,06,11,7.00
2005,02,28,06,12,6.80
2005,02,28,06,13,6.80
2005,02,28,06,14,6.80
2005,02,28,06,15,6.80
2005,02,28,06,16,6.80
2005,02,28,06,17,6.80
2005,02,28,06,18,6.80
2005,02,28,06,19,6.80
2005,02,28,06,20,6.90
2005,02,28,06,21,6.90
2005,02,28,06,22,6.90
2005,02,28,06,23,6.90
2005,02,28,06,24,6.90
2005,02,28,06,25,7.00
2005,02,28,06,26,7.00
2005,02,28,06,27,7.00
2005,02,28,06,28,7.10
2005,02,28,06,29,7.10
2005,02,28,06,30,7.10
2005,02,28,06,31,7.20
2005,02,28,06,32,7.20
2005,02,28,06,33,7.20
2005,02,28,06,34,7.20
2005,02,28,06,35,7.20
2005,02,28,06,36,7.20
2005,02,28,06,37,7.20
2005,02,28,06,38,7.30
2005,02,28,06,39,7.30
2005,02,28,06,40,7.30
2005,02,28,06,41,7.30
2005,02,28,06,42,7.30
2005,02,28,06,43,7.30
2005,02,28,06,44,7.30
2005,02,28,06,45,7.30
2005,02,28,06,46,7.30
2005,02,28,06,47,7.40
2005,02,28,06,48,7.40
2005,02,28,06,49,7.50
2005,02,28,06,50,7.60
2005,02,28,06,51,7.60
2005,02,28,06,52,7.80
2005,02,28,06,53,7.80
2005,02,28,06,54,7.80
2005,02,28,06,55,7.90
2005,02,28,06,56,7.90
2005,02,28,06,57,7.90
2005,02,28,06,58,8.00
2005,02,28,06,59,8.00
2005,02,28,07,00,8.10
2005,02,28,07,01,8.10
2005,02,28,07,02,8.10
2005,02,28,07,03,8.10
2005,02,28,07,04,8.10
2005,02,28,07,05,8.00
2005,02,28,07,06,8.00
2005,02,28,07,07,7.90
2005,02,28,07,08,7.80
2005,02,28,07,09,7.70
2005,02,28,07,10,7.60
2005,02,28,07,11,7.50
2005,02,28,07,12,7.50
2005,02,28,07,13,7.50
2005,02,28,07,14,7.60
2005,02,28,07,15,7.70
2005,02,28,07,16,7.70
2005,02,28,07,17,7.80
2005,02,28,07,18,7.80
2005,02,28,07,19,7.90
2005,02,28,07,20,7.90
2005,02,28,07,21,7.90
2005,02,28,07,22,7.90
2005,02,28,07,23,7.90
2005,02,28,07,24,7.80
2005,02,28,07,25,7.70
2005,02,28,07,26,7.60
2005,02,28,07,27,7.50
2005,02,28,07,28,7.50
2005,02,28,07,29,7.50
2005,02,28,07,30,7.60
2005,02,28,07,31,7.70
2005,02,28,07,32,7.80
2005,02,28,07,33,7.90
2005,02,28,07,34,8.00
2005,02,28,07,35,8.10
2005,02,28,07,36,8.20
2005,02,28,07,37,8.10
2005,02,28,07,38,8.10
2005,02,28,07,39,8.10
2005,02,28,07,40,8.00
2005,02,28,07,41,7.90
2005,02,28,07,42,7.80
2005,02,28,07,43,7.70
2005,02,28,07,44,7.50
2005,02,28,07,45,7.40
2005,02,28,07,46,7.30
2005,02,28,07,47,7.20
2005,02,28,07,48,7.20
2005,02,28,07,49,7.20
2005,02,28,07,50,7.20
2005,02,28,07,51,7.20
2005,02,28,07,52,7.30
2005,02,28,07,53,7.30
2005,02,28,07,54,7.30
2005,02,28,07,55,7.40
2005,02,28,07,56,7.40
2005,02,28,07,57,7.40
2005,02,28,07,58,7.50
2005,02,28,07,59,7.50
2005,02,28,08,00,7.50
2005,02,28,08,01,7.50
2005,02,28,08,02,7.50
2005,02,28,08,03,7.50
2005,02,28,08,04,7.50
2005,02,28,08,05,7.60
2005,02,28,08,06,7.60
2005,02,28,08,07,7.60
2005,02,28,08,08,7.70
2005,02,28,08,09,7.70
2005,02,28,08,10,7.80
2005,02,28,08,11,7.80
2005,02,28,08,12,7.80
2005,02,28,08,13,7.80
2005,02,28,08,14,7.80
2005,02,28,08,15,7.80
2005,02,28,08,16,7.80
2005,02,28,08,17,7.80
2005,02,28,08,18,7.90
2005,02,28,08,19,7.90
2005,02,28,08,20,7.90
2005,02,28,08,21,8.00
2005,02,28,08,22,8.00
2005,02,28,08,23,8.00
2005,02,28,08,24,8.00
2005,02,28,08,25,8.00
2005,02,28,08,26,8.00
2005,02,28,08,27,8.00
2005,02,28,08,28,8.00
2005,02,28,08,29,8.00
2005,02,28,08,30,8.00
2005,02,28,08,31,8.10
2005,02,28,08,32,8.10
2005,02,28,08,33,8.10
2005,02,28,08,34,8.10
2005,02,28,08,35,8.10
2005,02,28,08,36,8.20
2005,02,28,08,37,8.20
2005,02,28,08,38,8.20
2005,02,28,08,39,8.20
2005,02,28,08,40,8.20
2005,02,28,08,41,8.20
2005,02,28,08,42,8.30
2005,02,28,08,43,8.30
2005,02,28,08,44,8.30
2005,02,28,08,45,8.30
2005,02,28,08,46,8.30
2005,02,28,08,47,8.30
2005,02,28,08,48,8.40
2005,02,28,08,49,8.40
2005,02,28,08,50,8.40
2005,02,28,08,51,8.40
2005,02,28,08,52,8.40
2005,02,28,08,53,8.40
2005,02,28,08,54,8.40
2005,02,28,08,55,8.40
2005,02,28,08,56,8.40
2005,02,28,08,57,8.40
2005,02,28,08,58,8.40
2005,02,28,08,59,8.40
2005,02,28,09,00,8.50
2005,02,28,09,01,8.50
2005,02,28,09,02,8.50
2005,02,28,09,03,8.50
2005,02,28,09,04,8.60
2005,02,28,09,05,8.80
2005,02,28,09,06,8.90
2005,02,28,09,07,9.00
2005,02,28,09,08,9.00
2005,02,28,09,09,9.00
2005,02,28,09,10,9.00
2005,02,28,09,11,8.90
2005,02,28,09,12,8.90
2005,02,28,09,13,8.90
2005,02,28,09,14,8.80
2005,02,28,09,15,8.70
2005,02,28,09,16,8.70
2005,02,28,09,17,8.70
2005,02,28,09,18,8.70
2005,02,28,09,19,8.70
2005,02,28,09,20,8.70
2005,02,28,09,21,8.70
2005,02,28,09,22,8.70
2005,02,28,09,23,8.70
2005,02,28,09,24,8.60
2005,02,28,09,25,8.60
2005,02,28,09,26,8.60
2005,02,28,09,27,8.60
2005,02,28,09,28,8.50
2005,02,28,09,29,8.50
2005,02,28,09,30,8.50
2005,02,28,09,31,8.50
2005,02,28,09,32,8.50
2005,02,28,09,33,8.40
2005,02,28,09,34,8.40
2005,02,28,09,35,8.40
2005,02,28,09,36,8.30
2005,02,28,09,37,8.30
2005,02,28,09,38,8.30
2005,02,28,09,39,8.30
2005,02,28,09,40,8.20
2005,02,28,09,41,8.20
2005,02,28,09,42,8.20
2005,02,28,09,43,8.20
2005,02,28,09,44,8.20
2005,02,28,09,45,8.20
2005,02,28,09,46,8.20
2005,02,28,09,47,8.20
2005,02,28,09,48,8.20
2005,02,28,09,49,8.20
2005,02,28,09,50,8.20
2005,02,28,09,51,8.20
2005,02,28,09,52,8.20
2005,02,28,09,53,8.20
2005,02,28,09,54,8.10
2005,02,28,09,55,8.10
2005,02,28,09,56,8.10
2005,02,28,09,57,8.10
2005,02,28,09,58,8.10
2005,02,28,09,59,8.10
2005,02,28,10,00,8.10
2005,02,28,10,01,8.10
2005,02,28,10,02,8.10
2005,02,28,10,03,8.00
2005,02,28,10,04,8.00
2005,02,28,10,05,7.90
2005,02,28,10,06,7.90
2005,02,28,10,07,7.90
2005,02,28,10,08,7.90
2005,02,28,10,09,7.90
2005,02,28,10,10,7.90
2005,02,28,10,11,7.90
2005,02,28,10,12,7.90
2005,02,28,10,13,7.90
2005,02,28,10,14,7.90
2005,02,28,10,15,8.00
2005,02,28,10,16,8.00
2005,02,28,10,17,8.00
2005,02,28,10,18,8.10
2005,02,28,10,19,8.10
2005,02,28,10,20,8.10
2005,02,28,10,21,8.20
2005,02,28,10,22,8.20
2005,02,28,10,23,8.20
2005,02,28,10,24,8.20
2005,02,28,10,25,8.20
2005,02,28,10,26,8.20
2005,02,28,10,27,8.20
2005,02,28,10,28,8.20
2005,02,28,10,29,8.20
2005,02,28,10,30,8.30
2005,02,28,10,31,8.30
2005,02,28,10,32,8.30
2005,02,28,10,33,8.30
2005,02,28,10,34,8.30
2005,02,28,10,35,8.30
2005,02,28,10,36,8.30
2005,02,28,10,37,8.30
2005,02,28,10,38,8.30
2005,02,28,10,39,8.30
2005,02,28,10,40,8.40
2005,02,28,10,41,8.40
2005,02,28,10,42,8.40
2005,02,28,10,43,8.40
2005,02,28,10,44,8.40
2005,02,28,10,45,8.50
2005,02,28,10,46,8.50
2005,02,28,10,47,8.50
2005,02,28,10,48,8.50
2005,02,28,10,49,8.50
2005,02,28,10,50,8.50
2005,02,28,10,51,8.60
2005,02,28,10,52,8.60
2005,02,28,10,53,8.50
2005,02,28,10,54,8.60
2005,02,28,10,55,8.60
2005,02,28,10,56,8.60
2005,02,28,10,57,8.60
2005,02,28,10,58,8.60
2005,02,28,10,59,8.60
2005,02,28,11,00,8.60
2005,02,28,11,01,8.60
2005,02,28,11,02,8.50
2005,02,28,11,03,8.60
2005,02,28,11,04,8.60
2005,02,28,11,05,8.60
2005,02,28,11,06,8.60
2005,02,28,11,07,8.60
2005,02,28,11,08,8.60
2005,02,28,11,09,8.60
2005,02,28,11,10,8.60
2005,02,28,11,11,8.60
2005,02,28,11,12,8.60
2005,02,28,11,13,8.50
2005,02,28,11,14,8.60
2005,02,28,11,15,8.60
2005,02,28,11,16,8.60
2005,02,28,11,17,8.60
2005,02,28,11,18,8.60
2005,02,28,11,19,8.60
2005,02,28,11,20,8.60
2005,02,28,11,21,8.60
2005,02,28,11,22,8.60
2005,02,28,11,23,8.60
2005,02,28,11,24,8.60
2005,02,28,11,25,8.60
2005,02,28,11,26,8.60
2005,02,28,11,27,8.60
2005,02,28,11,28,8.60
2005,02,28,11,29,8.60
2005,02,28,11,30,8.60
2005,02,28,11,31,8.60
2005,02,28,11,32,8.60
2005,02,28,11,33,8.60
2005,02,28,11,34,8.60
2005,02,28,11,35,8.70
2005,02,28,11,36,8.70
2005,02,28,11,37,8.70
2005,02,28,11,38,8.70
2005,02,28,11,39,8.70
2005,02,28,11,40,8.70
2005,02,28,11,41,8.70
2005,02,28,11,42,8.70
2005,02,28,11,43,8.70
2005,02,28,11,44,8.70
2005,02,28,11,45,8.70
2005,02,28,11,46,8.70
2005,02,28,11,47,8.70
2005,02,28,11,48,8.70
2005,02,28,11,49,8.70
2005,02,28,11,50,8.70
2005,02,28,11,51,8.70
2005,02,28,11,52,8.70
2005,02,28,11,53,8.70
2005,02,28,11,54,8.70
2005,02,28,11,55,8.70
2005,02,28,11,56,8.80
2005,02,28,11,57,8.70
2005,02,28,11,58,8.80
2005,02,28,11,59,8.80
2005,02,28,12,00,8.80
2005,02,28,12,01,8.80
2005,02,28,12,02,8.80
2005,02,28,12,03,8.80
2005,02,28,12,04,8.80
2005,02,28,12,05,8.80
2005,02,28,12,06,8.80
2005,02,28,12,07,8.90
2005,02,28,12,08,8.90
2005,02,28,12,09,8.90
2005,02,28,12,10,8.90
2005,02,28,12,11,8.90
2005,02,28,12,12,8.90
2005,02,28,12,13,8.90
2005,02,28,12,14,9.00
2005,02,28,12,15,9.00
2005,02,28,12,16,9.00
2005,02,28,12,17,9.00
2005,02,28,12,18,9.00
2005,02,28,12,19,9.00
2005,02,28,12,20,9.10
2005,02,28,12,21,9.10
2005,02,28,12,22,9.10
2005,02,28,12,23,9.20
2005,02,28,12,24,9.20
2005,02,28,12,25,9.20
2005,02,28,12,26,9.40
2005,02,28,12,27,9.40
2005,02,28,12,28,9.50
2005,02,28,12,29,9.50
2005,02,28,12,30,9.50
2005,02,28,12,31,9.50
2005,02,28,12,32,9.50
2005,02,28,12,33,9.50
2005,02,28,12,34,9.60
2005,02,28,12,35,9.60
2005,02,28,12,36,9.70
2005,02,28,12,37,9.60
2005,02,28,12,38,9.60
2005,02,28,12,39,9.50
2005,02,28,12,40,9.50
2005,02,28,12,41,9.50
2005,02,28,12,42,9.50
2005,02,28,12,43,9.40
2005,02,28,12,44,9.40
2005,02,28,12,45,9.50
2005,02,28,12,46,9.50
2005,02,28,12,47,9.40
2005,02,28,12,48,9.40
2005,02,28,12,49,9.40
2005,02,28,12,50,9.40
2005,02,28,12,51,9.50
2005,02,28,12,52,9.50
2005,02,28,12,53,9.50
2005,02,28,12,54,9.50
2005,02,28,12,55,9.50
2005,02,28,12,56,9.40
2005,02,28,12,57,9.50
2005,02,28,12,58,9.50
2005,02,28,12,59,9.50
2005,02,28,13,00,9.50
2005,02,28,13,01,9.50
2005,02,28,13,02,9.50
2005,02,28,13,03,9.60
2005,02,28,13,04,9.60
2005,02,28,13,05,9.60
2005,02,28,13,06,9.70
2005,02,28,13,07,9.70
2005,02,28,13,08,9.70
2005,02,28,13,09,9.70
2005,02,28,13,10,9.80
2005,02,28,13,11,9.80
2005,02,28,13,12,9.90
2005,02,28,13,13,9.90
2005,02,28,13,14,9.90
2005,02,28,13,15,9.90
2005,02,28,13,16,9.90
2005,02,28,13,17,9.90
2005,02,28,13,18,9.90
2005,02,28,13,19,9.90
2005,02,28,13,20,9.90
2005,02,28,13,21,9.90
2005,02,28,13,22,9.90
2005,02,28,13,23,9.90
2005,02,28,13,24,9.90
2005,02,28,13,25,9.90
2005,02,28,13,26,9.90
2005,02,28,13,27,10.00
2005,02,28,13,28,10.00
2005,02,28,13,29,9.90
2005,02,28,13,30,9.90
2005,02,28,13,31,9.90
2005,02,28,13,32,9.90
2005,02,28,13,33,9.90
2005,02,28,13,34,9.90
2005,02,28,13,35,9.90
2005,02,28,13,36,9.90
2005,02,28,13,37,9.90
2005,02,28,13,38,9.90
2005,02,28,13,39,9.90
2005,02,28,13,40,9.90
2005,02,28,13,41,9.90
2005,02,28,13,42,10.00
2005,02,28,13,43,10.10
2005,02,28,13,44,10.10
2005,02,28,13,45,10.10
2005,02,28,13,46,10.20
2005,02,28,13,47,10.20
2005,02,28,13,48,10.30
2005,02,28,13,49,10.40
2005,02,28,13,50,10.50
2005,02,28,13,51,10.50
2005,02,28,13,52,10.50
2005,02,28,13,53,10.60
2005,02,28,13,54,10.70
2005,02,28,13,55,10.70
2005,02,28,13,56,10.70
2005,02,28,13,57,10.80
2005,02,28,13,58,10.80
2005,02,28,13,59,10.80
2005,02,28,14,00,10.90
2005,02,28,14,01,10.90
2005,02,28,14,02,10.90
2005,02,28,14,03,11.00
2005,02,28,14,04,11.10
2005,02,28,14,05,11.10
2005,02,28,14,06,11.00
2005,02,28,14,07,11.10
2005,02,28,14,08,11.00
2005,02,28,14,09,10.90
2005,02,28,14,11,10.80
2005,02,28,14,12,10.80
2005,02,28,14,13,10.80
2005,02,28,14,14,10.90
2005,02,28,14,15,10.90
2005,02,28,14,16,10.90
2005,02,28,14,17,10.90
2005,02,28,14,18,10.90
2005,02,28,14,19,10.90
2005,02,28,14,20,10.90
2005,02,28,14,21,10.80
2005,02,28,14,22,10.80
2005,02,28,14,23,10.80
2005,02,28,14,24,10.90
2005,02,28,14,25,10.90
2005,02,28,14,26,11.00
2005,02,28,14,27,11.00
2005,02,28,14,28,10.90
2005,02,28,14,29,10.90
2005,02,28,14,30,10.90
2005,02,28,14,31,10.90
2005,02,28,14,32,10.90
2005,02,28,14,33,11.00
2005,02,28,14,34,10.90
2005,02,28,14,35,10.90
2005,02,28,14,36,11.00
2005,02,28,14,37,11.10
2005,02,28,14,38,11.10
2005,02,28,14,39,11.10
2005,02,28,14,40,11.10
2005,02,28,14,41,11.20
2005,02,28,14,42,11.20
2005,02,28,14,43,11.20
2005,02,28,14,44,11.10
2005,02,28,14,45,11.20
2005,02,28,14,46,11.20
2005,02,28,14,47,11.30
2005,02,28,14,48,11.30
2005,02,28,14,49,11.20
2005,02,28,14,50,11.20
2005,02,28,14,51,11.20
2005,02,28,14,52,11.20
2005,02,28,14,53,11.10
2005,02,28,14,54,11.10
2005,02,28,14,55,11.10
2005,02,28,14,56,11.10
2005,02,28,14,57,11.20
2005,02,28,14,58,11.30
2005,02,28,14,59,11.30
2005,02,28,15,00,11.20
2005,02,28,15,01,11.10
2005,02,28,15,02,11.00
2005,02,28,15,03,11.00
2005,02,28,15,04,10.90
2005,02,28,15,05,10.90
2005,02,28,15,06,10.90
2005,02,28,15,07,10.80
2005,02,28,15,08,10.90
2005,02,28,15,09,10.90
2005,02,28,15,10,10.90
2005,02,28,15,11,11.00
2005,02,28,15,12,11.00
2005,02,28,15,13,11.10
2005,02,28,15,14,11.10
2005,02,28,15,15,11.10
2005,02,28,15,16,11.10
2005,02,28,15,17,11.10
2005,02,28,15,18,11.10
2005,02,28,15,19,11.10
2005,02,28,15,20,11.10
2005,02,28,15,21,11.10
2005,02,28,15,22,11.10
2005,02,28,15,23,11.10
2005,02,28,15,24,11.10
2005,02,28,15,25,11.00
2005,02,28,15,26,10.90
2005,02,28,15,27,10.90
2005,02,28,15,28,10.90
2005,02,28,15,29,11.00
2005,02,28,15,30,11.10
2005,02,28,15,31,11.10
2005,02,28,15,32,11.20
2005,02,28,15,33,11.40
2005,02,28,15,34,11.50
2005,02,28,15,35,11.60
2005,02,28,15,36,11.70
2005,02,28,15,37,11.80
2005,02,28,15,38,12.00
2005,02,28,15,39,12.20
2005,02,28,15,40,12.50
2005,02,28,15,41,12.60
2005,02,28,15,42,12.80
2005,02,28,15,43,13.00
2005,02,28,15,44,13.20
2005,02,28,15,45,13.30
2005,02,28,15,46,13.40
2005,02,28,15,47,13.50
2005,02,28,15,48,13.50
2005,02,28,15,49,13.60
2005,02,28,15,50,13.70
2005,02,28,15,51,13.70
2005,02,28,15,52,13.80
2005,02,28,15,53,13.80
2005,02,28,15,54,13.80
2005,02,28,15,55,13.80
2005,02,28,15,56,14.00
2005,02,28,15,57,14.10
2005,02,28,15,58,14.30
2005,02,28,15,59,14.40
2005,02,28,16,00,14.50
2005,02,28,16,01,14.60
2005,02,28,16,02,14.60
2005,02,28,16,03,14.60
2005,02,28,16,04,14.60
2005,02,28,16,05,14.50
2005,02,28,16,06,14.40
2005,02,28,16,07,14.20
2005,02,28,16,08,14.20
2005,02,28,16,09,14.10
2005,02,28,16,10,14.10
2005,02,28,16,11,14.10
2005,02,28,16,12,14.00
2005,02,28,16,13,13.90
2005,02,28,16,14,13.90
2005,02,28,16,15,13.70
2005,02,28,16,16,13.70
2005,02,28,16,17,13.40
2005,02,28,16,18,13.00
2005,02,28,16,19,12.70
2005,02,28,16,20,12.40
2005,02,28,16,21,12.10
2005,02,28,16,22,11.90
2005,02,28,16,23,11.60
2005,02,28,16,24,11.40
2005,02,28,16,25,11.10
2005,02,28,16,26,10.90
2005,02,28,16,27,10.70
2005,02,28,16,28,10.60
2005,02,28,16,29,10.60
2005,02,28,16,30,10.50
2005,02,28,16,31,10.40
2005,02,28,16,32,10.40
2005,02,28,16,33,10.40
2005,02,28,16,34,10.40
2005,02,28,16,35,10.40
2005,02,28,16,36,10.40
2005,02,28,16,37,10.20
2005,02,28,16,38,10.10
2005,02,28,16,39,10.00
2005,02,28,16,40,9.90
2005,02,28,16,41,9.80
2005,02,28,16,42,9.80
2005,02,28,16,43,9.70
2005,02,28,16,44,9.70
2005,02,28,16,45,9.70
2005,02,28,16,46,9.70
2005,02,28,16,47,9.80
2005,02,28,16,48,9.80
2005,02,28,16,49,9.90
2005,02,28,16,50,9.90
2005,02,28,16,51,9.90
2005,02,28,16,52,9.90
2005,02,28,16,53,9.90
2005,02,28,16,54,9.80
2005,02,28,16,55,9.80
2005,02,28,16,56,9.80
2005,02,28,16,57,9.80
2005,02,28,16,58,9.80
2005,02,28,16,59,9.80
2005,02,28,17,00,9.80
2005,02,28,17,01,9.80
2005,02,28,17,02,9.80
2005,02,28,17,03,9.70
2005,02,28,17,04,9.70
2005,02,28,17,05,9.70
2005,02,28,17,06,9.70
2005,02,28,17,07,9.70
2005,02,28,17,08,9.70
2005,02,28,17,09,9.70
2005,02,28,17,10,9.60
2005,02,28,17,11,9.50
2005,02,28,17,12,9.50
2005,02,28,17,13,9.40
2005,02,28,17,14,9.40
2005,02,28,17,15,9.30
2005,02,28,17,16,9.30
2005,02,28,17,17,9.30
2005,02,28,17,18,9.20
2005,02,28,17,19,9.30
2005,02,28,17,20,9.30
2005,02,28,17,21,9.30
2005,02,28,17,22,9.30
2005,02,28,17,23,9.30
2005,02,28,17,24,9.30
2005,02,28,17,25,9.30
2005,02,28,17,26,9.40
2005,02,28,17,27,9.40
2005,02,28,17,28,9.40
2005,02,28,17,29,9.50
2005,02,28,17,30,9.50
2005,02,28,17,31,9.40
2005,02,28,17,32,9.40
2005,02,28,17,33,9.40
2005,02,28,17,34,9.30
2005,02,28,17,35,9.30
2005,02,28,17,36,9.30
2005,02,28,17,37,9.30
2005,02,28,17,38,9.40
2005,02,28,17,39,9.50
2005,02,28,17,40,9.60
2005,02,28,17,41,9.70
2005,02,28,17,42,9.90
2005,02,28,17,43,9.90
2005,02,28,17,44,10.10
2005,02,28,17,45,10.20
2005,02,28,17,46,10.30
2005,02,28,17,47,10.40
2005,02,28,17,48,10.40
2005,02,28,17,49,10.40
2005,02,28,17,50,10.40
2005,02,28,17,51,10.40
2005,02,28,17,52,10.30
2005,02,28,17,53,10.30
2005,02,28,17,54,10.30
2005,02,28,17,55,10.30
2005,02,28,17,56,10.20
2005,02,28,17,57,10.10
2005,02,28,17,58,10.20